Overview Statistics Trail Chart Weather Telemetry Raw packets
 

This is the latest recevied weather packets stored in our database for station/object K4XP. If no packets are shown the sender has not sent any weather packets the latest 10 day(s).

<< 20 21 22 23 24 25 26 >>
Time Temp. Humidity Pressure Rain* Wind** Luminosity Snow
1788552917 35.56° C 52% 1014.7 hPa 0 mm - - -
1788552311 36.11° C 55% 1015 hPa 0 mm - - -
1788552022 36.11° C 56% 1015 hPa 0 mm - - -
1788551758 36.11° C 55% 1015.1 hPa 0 mm - - -
1788551414 35.56° C 55% 1015.1 hPa 0 mm - - -
1788551117 35.56° C 57% 1015.2 hPa 0 mm - - -
1788550822 35.56° C 55% 1015.3 hPa 0 mm - - -
1788549914 35.56° C 54% 1015.6 hPa 0 mm - - -
1788549619 35.56° C 57% 1015.8 hPa 0 mm - - -
1788549326 35° C 56% 1015.9 hPa 0 mm - - -
1788549021 35° C 57% 1015.9 hPa 0 mm - - -
1788548721 34.44° C 63% 1015.9 hPa 0 mm - - -
1788548425 34.44° C 58% 1016 hPa 0 mm - - -
1788548111 34.44° C 58% 1016 hPa 0 mm - - -
1788547814 34.44° C 60% 1016.1 hPa 0 mm - - -
1788547517 34.44° C 61% 1016.1 hPa 0 mm - - -
1788547220 34.44° C 60% 1016.2 hPa 0 mm - - -
1788546929 34.44° C 59% 1016.3 hPa 0 mm - - -
1788546612 34.44° C 60% 1016.3 hPa 0 mm - - -
1788546322 34.44° C 59% 1016.3 hPa 0 mm - - -
1788546025 34.44° C 59% 1016.4 hPa 0 mm - - -
1788545727 34.44° C 58% 1016.5 hPa 0 mm - - -
1788545412 34.44° C 58% 1016.5 hPa 0 mm - - -
1788545130 34.44° C 61% 1016.6 hPa 0 mm - - -
1788544517 33.89° C 62% 1016.7 hPa 0 mm - - -

* Rain latest hour (hover to see other rain measurements)
** Current wind speed in m/s (hover to see current wind gust speed)